This demonstration page uses our WeatherBlox Daily Observations layout. Learn more.

Hourly Observations for June 8, 2015

Temp ( °F °C ) Dew Point ( °F °C ) Humidity (%) Winds ( mph kmh ) Pressure ( in mb ) Visibility ( mi km ) Precip ( " mm )
12:15 am 00:15 Clear 64 18 59 15 83 83 Calm 29.91 1013 10 16.09344 0 0
12:35 am 00:35 Clear 64 18 59 15 83 83 Calm 29.94 1014 10 16.09344 0 0
12:55 am 00:55 Clear 64 18 57 14 78 78 WNW 3 6 29.94 1014 10 16.09344 0 0
1:15 am 01:15 Clear 64 18 59 15 83 83 W 6 9 29.94 1014 10 16.09344 0 0
1:35 am 01:35 Clear 64 18 59 15 83 83 WNW 5 7 29.94 1014 10 16.09344 0 0
1:55 am 01:55 Clear 63 17 57 14 83 83 WNW 5 7 29.94 1014 10 16.09344 0 0
2:15 am 02:15 Clear 63 17 57 14 83 83 WNW 3 6 29.94 1014 10 16.09344 0 0
2:35 am 02:35 Clear 63 17 57 14 83 83 Calm 29.94 1014 10 16.09344 0 0
2:55 am 02:55 Clear 63 17 57 14 83 83 W 3 6 29.94 1014 10 16.09344 0 0
3:15 am 03:15 Clear 63 17 57 14 83 83 W 5 7 29.94 1014 10 16.09344 0 0
3:35 am 03:35 Clear 63 17 57 14 83 83 WNW 5 7 29.94 1014 10 16.09344 0 0
3:55 am 03:55 Clear 63 17 57 14 83 83 W 7 11 29.94 1014 10 16.09344 0 0
4:15 am 04:15 Clear 63 17 57 14 83 83 W 7 11 29.94 1014 10 16.09344 0 0
4:35 am 04:35 Clear 61 16 55 13 83 83 W 7 11 29.94 1014 10 16.09344 0 0
4:55 am 04:55 Clear 63 17 55 13 77 77 WNW 6 9 29.94 1014 10 16.09344 0 0
5:15 am 05:15 Clear 61 16 55 13 83 83 W 7 11 29.94 1014 10 16.09344 0 0
5:35 am 05:35 Clear 59 15 55 13 88 88 W 7 11 29.97 1015 10 16.09344 0 0
5:55 am 05:55 Clear 61 16 55 13 83 83 W 6 9 29.94 1014 10 16.09344 0 0
6:15 am 06:15 Sunny 61 16 55 13 83 83 W 6 9 29.94 1014 10 16.09344 0 0
6:35 am 06:35 Sunny 61 16 55 13 83 83 W 6 9 29.94 1014 10 16.09344 0 0
6:55 am 06:55 Sunny 63 17 55 13 77 77 W 7 11 29.94 1014 10 16.09344 0 0
7:15 am 07:15 Sunny 63 17 55 13 77 77 W 6 9 29.94 1014 10 16.09344 0 0
7:35 am 07:35 Sunny 64 18 57 14 78 78 WNW 6 9 29.97 1015 10 16.09344 0 0
7:55 am 07:55 Sunny 64 18 57 14 78 78 WNW 5 7 29.97 1015 10 16.09344 0 0
8:15 am 08:15 Sunny 66 19 59 15 78 78 WNW 6 9 29.97 1015 10 16.09344 0 0
8:35 am 08:35 Sunny 70 21 59 15 69 69 NW 9 15 29.94 1014 10 16.09344 0 0
8:55 am 08:55 Sunny 72 22 59 15 65 65 NW 10 17 29.94 1014 10 16.09344 0 0
9:15 am 09:15 Sunny 73 23 57 14 57 57 NW 12 19 29.94 1014 10 16.09344 0 0
9:35 am 09:35 Sunny 75 24 57 14 54 54 NW 9 15 29.91 1013 10 16.09344 0 0
9:55 am 09:55 Sunny 77 25 55 13 47 47 NNW 12 19 29.91 1013 10 16.09344 0 0
10:15 am 10:15 Sunny 79 26 55 13 45 45 NW 12 19 29.91 1013 10 16.09344 0 0
10:35 am 10:35 Sunny 79 26 54 12 42 42 NW 12 19 29.91 1013 10 16.09344 0 0
10:55 am 10:55 Sunny 81 27 50 10 34 34 N 12 19 29.91 1013 10 16.09344 0 0
11:15 am 11:15 Sunny 81 27 50 10 34 34 N 9 15 29.91 1013 10 16.09344 0 0
11:35 am 11:35 Sunny 81 27 46 8 30 30 NNW 10 17 29.91 1013 10 16.09344 0 0
11:55 am 11:55 Sunny 82 28 48 9 30 30 NNW 9 15 29.88 1012 10 16.09344 0 0
12:15 pm 12:15 Sunny 82 28 48 9 30 30 NNW 10 17 29.88 1012 10 16.09344 0 0
12:35 pm 12:35 Sunny 82 28 50 10 32 32 NW 5 7 29.88 1012 10 16.09344 0 0
12:55 pm 12:55 Sunny 82 28 48 9 30 30 NW 8 13 29.88 1012 10 16.09344 0 0
1:15 pm 13:15 Sunny 82 28 48 9 30 30 NW 6 9 29.88 1012 10 16.09344 0 0
1:35 pm 13:35 Sunny 82 28 46 8 28 28 NNW 5 7 29.85 1011 10 16.09344 0 0
1:55 pm 13:55 Sunny 84 29 48 9 29 29 N 7 11 29.85 1011 10 16.09344 0 0
2:15 pm 14:15 Partly Cloudy 84 29 48 9 29 29 NW 8 13 29.85 1011 10 16.09344 0 0
2:55 pm 14:55 Partly Cloudy 84 29 48 9 29 29 WNW 10 17 29.85 1011 10 16.09344 0 0
3:15 pm 15:15 Partly Cloudy 82 28 48 9 30 30 NNW 6 9 29.85 1011 10 16.09344 0 0
3:35 pm 15:35 Partly Cloudy 84 29 50 10 31 31 W 5 7 29.85 1011 10 16.09344 0 0
3:55 pm 15:55 Mostly Cloudy 84 29 50 10 31 31 NW 3 6 29.85 1011 10 16.09344 0 0
4:15 pm 16:15 Partly Cloudy 84 29 50 10 31 31 W 5 7 29.83 1010 10 16.09344 0 0
4:35 pm 16:35 Partly Cloudy 86 30 50 10 29 29 WNW 8 13 29.83 1010 10 16.09344 0 0
4:55 pm 16:55 Partly Cloudy 86 30 50 10 29 29 WNW 6 9 29.83 1010 10 16.09344 0 0
5:15 pm 17:15 Sunny 86 30 48 9 27 27 WNW 6 9 29.83 1010 10 16.09344 0 0
5:35 pm 17:35 Partly Cloudy 86 30 48 9 27 27 NNE 7 11 29.83 1010 10 16.09344 0 0
5:55 pm 17:55 Mostly Cloudy 84 29 50 10 31 31 Calm 29.83 1010 10 16.09344 0 0
6:15 pm 18:15 Partly Cloudy 84 29 50 10 31 31 NNW 8 13 29.83 1010 10 16.09344 0 0
6:35 pm 18:35 Partly Cloudy 86 30 50 10 29 29 N 5 7 29.83 1010 10 16.09344 0 0
6:55 pm 18:55 Mostly Cloudy 86 30 48 9 27 27 N 3 6 29.83 1010 10 16.09344 0 0
7:15 pm 19:15 Partly Cloudy 84 29 50 10 31 31 N 3 6 29.83 1010 10 16.09344 0 0
7:35 pm 19:35 Sunny 82 28 52 11 35 35 Calm 29.83 1010 10 16.09344 0 0
7:55 pm 19:55 Partly Cloudy 82 28 52 11 35 35 Calm 29.83 1010 10 16.09344 0 0
8:15 pm 20:15 Partly Cloudy 81 27 54 12 39 39 Calm 29.83 1010 10 16.09344 0 0
8:35 pm 20:35 Sunny 79 26 54 12 42 42 E 5 7 29.85 1011 10 16.09344 0 0
8:55 pm 20:55 Sunny 77 25 54 12 44 44 E 6 9 29.85 1011 10 16.09344 0 0
9:15 pm 21:15 Clear 77 25 52 11 42 42 E 5 7 29.85 1011 10 16.09344 0 0
9:35 pm 21:35 Clear 73 23 57 14 57 57 ESE 5 7 29.85 1011 10 16.09344 0 0
9:55 pm 21:55 Clear 73 23 55 13 53 53 ESE 5 7 29.85 1011 10 16.09344 0 0
10:15 pm 22:15 Clear 73 23 55 13 53 53 Calm 29.85 1011 10 16.09344 0 0
10:35 pm 22:35 Clear 72 22 55 13 57 57 Calm 29.88 1012 10 16.09344 0 0
10:55 pm 22:55 Clear 72 22 55 13 57 57 SE 3 6 29.88 1012 10 16.09344 0 0
11:15 pm 23:15 Clear 72 22 54 12 53 53 SSE 5 7 29.88 1012 10 16.09344 0 0
11:35 pm 23:35 Clear 70 21 54 12 57 57 S 3 6 29.88 1012 10 16.09344 0 0
11:55 pm 23:55 Clear 70 21 54 12 57 57 SSE 3 6 29.88 1012 10 16.09344 0 0

Powered by AerisWeather